Time,TemperatureF,DewpointF,PressureIn,WindDirection,WindDirectionDegrees,WindSpeedMPH,WindSpeedGustMPH,Humidity,HourlyPrecipIn,Conditions,Clouds,dailyrainin,SoftwareType,DateUTC
2013-07-13 00:01:00,57.7,52.3,30.28,North,353,0.0,0.0,82,0.00,,CLR,0.00,VWS V14.01,2013-07-13 04:01:00,
2013-07-13 00:02:00,57.7,52.3,30.28,North,353,0.0,0.0,82,0.00,,CLR,0.00,VWS V14.01,2013-07-13 04:02:00,
2013-07-13 00:07:00,57.6,52.1,30.28,North,353,0.0,0.0,82,0.00,,CLR,0.00,VWS V14.01,2013-07-13 04:07:00,
2013-07-13 00:12:00,57.6,52.1,30.28,North,353,0.0,0.0,82,0.00,,CLR,0.00,VWS V14.01,2013-07-13 04:12:00,
2013-07-13 00:17:00,57.4,52.3,30.28,North,353,0.0,0.0,83,0.00,,CLR,0.00,VWS V14.01,2013-07-13 04:17:00,
2013-07-13 00:22:00,57.2,52.1,30.28,North,353,0.0,0.0,83,0.00,,CLR,0.00,VWS V14.01,2013-07-13 04:22:00,
2013-07-13 00:27:00,57.2,52.1,30.28,North,353,0.0,0.0,83,0.00,,CLR,0.00,VWS V14.01,2013-07-13 04:27:00,
2013-07-13 00:32:00,57.0,52.2,30.28,North,353,0.0,0.0,84,0.00,,CLR,0.00,VWS V14.01,2013-07-13 04:32:00,
2013-07-13 00:37:00,57.0,52.2,30.28,North,353,0.0,0.0,84,0.00,,CLR,0.00,VWS V14.01,2013-07-13 04:37:00,
2013-07-13 00:42:00,56.8,52.1,30.28,North,353,0.0,0.0,84,0.00,,CLR,0.00,VWS V14.01,2013-07-13 04:42:00,
2013-07-13 00:47:00,56.8,52.1,30.28,North,353,0.0,0.0,84,0.00,,CLR,0.00,VWS V14.01,2013-07-13 04:47:00,
2013-07-13 00:52:00,56.8,52.1,30.28,North,353,0.0,0.0,84,0.00,,CLR,0.00,VWS V14.01,2013-07-13 04:52:00,
2013-07-13 00:58:00,56.8,52.1,30.31,North,353,0.0,0.0,84,0.00,,CLR,0.00,VWS V14.01,2013-07-13 04:58:00,
2013-07-13 01:02:00,56.8,52.1,30.31,North,353,0.0,0.0,84,0.00,,CLR,0.00,VWS V14.01,2013-07-13 05:02:00,
2013-07-13 01:07:00,56.5,52.0,30.31,North,353,0.0,0.0,85,0.00,,CLR,0.00,VWS V14.01,2013-07-13 05:07:00,
2013-07-13 01:13:00,56.5,52.0,30.31,North,353,0.0,0.0,85,0.00,,CLR,0.00,VWS V14.01,2013-07-13 05:13:00,
2013-07-13 01:18:00,56.3,51.9,30.31,North,353,0.0,0.0,85,0.00,,CLR,0.00,VWS V14.01,2013-07-13 05:18:00,
2013-07-13 01:23:00,56.3,51.9,30.31,North,353,0.0,0.0,85,0.00,,CLR,0.00,VWS V14.01,2013-07-13 05:23:00,
2013-07-13 01:28:00,56.3,51.9,30.31,North,353,0.0,0.0,85,0.00,,CLR,0.00,VWS V14.01,2013-07-13 05:28:00,
2013-07-13 01:33:00,56.3,52.2,30.31,North,353,0.0,0.0,86,0.00,,CLR,0.00,VWS V14.01,2013-07-13 05:33:00,
2013-07-13 01:38:00,56.3,52.2,30.31,North,353,0.0,0.0,86,0.00,,CLR,0.00,VWS V14.01,2013-07-13 05:38:00,
2013-07-13 01:43:00,56.3,52.2,30.31,North,353,0.0,0.0,86,0.00,,CLR,0.00,VWS V14.01,2013-07-13 05:43:00,
2013-07-13 01:48:00,56.1,52.3,30.31,North,353,0.0,0.0,87,0.00,,CLR,0.00,VWS V14.01,2013-07-13 05:48:00,
2013-07-13 01:53:00,56.1,52.3,30.31,North,353,0.0,0.0,87,0.00,,CLR,0.00,VWS V14.01,2013-07-13 05:53:00,
2013-07-13 01:58:00,56.1,52.3,30.31,North,353,0.0,0.0,87,0.00,,CLR,0.00,VWS V14.01,2013-07-13 05:58:00,
2013-07-13 02:03:00,55.9,52.1,30.31,North,353,0.0,0.0,87,0.00,,CLR,0.00,VWS V14.01,2013-07-13 06:03:00,
2013-07-13 02:08:00,55.9,52.1,30.31,North,353,0.0,0.0,87,0.00,,CLR,0.00,VWS V14.01,2013-07-13 06:08:00,
2013-07-13 02:13:00,55.9,52.1,30.31,North,353,0.0,0.0,87,0.00,,CLR,0.00,VWS V14.01,2013-07-13 06:13:00,
2013-07-13 02:18:00,55.6,51.8,30.31,North,353,0.0,0.0,87,0.00,,CLR,0.00,VWS V14.01,2013-07-13 06:18:00,
2013-07-13 02:23:00,55.6,51.8,30.31,North,353,0.0,0.0,87,0.00,,CLR,0.00,VWS V14.01,2013-07-13 06:23:00,
2013-07-13 02:28:00,55.6,52.1,30.31,North,353,0.0,0.0,88,0.00,,CLR,0.00,VWS V14.01,2013-07-13 06:28:00,
2013-07-13 02:33:00,55.4,51.9,30.31,North,353,0.0,0.0,88,0.00,,CLR,0.00,VWS V14.01,2013-07-13 06:33:00,
2013-07-13 02:38:00,55.4,51.9,30.31,North,353,0.0,0.0,88,0.00,,CLR,0.00,VWS V14.01,2013-07-13 06:38:00,
2013-07-13 02:43:00,55.4,51.9,30.31,North,353,0.0,0.0,88,0.00,,SCT045,0.00,VWS V14.01,2013-07-13 06:43:00,
2013-07-13 02:48:00,55.4,51.9,30.31,North,353,0.0,0.0,88,0.00,,SCT045,0.00,VWS V14.01,2013-07-13 06:48:00,
2013-07-13 02:53:00,55.2,52.0,30.31,North,353,0.0,0.0,89,0.00,,SCT045,0.00,VWS V14.01,2013-07-13 06:53:00,
2013-07-13 02:58:00,55.2,52.0,30.31,North,353,0.0,0.0,89,0.00,,SCT045,0.00,VWS V14.01,2013-07-13 06:58:00,
2013-07-13 03:03:00,55.2,52.0,30.31,North,353,0.0,0.0,89,0.00,,SCT045,0.00,VWS V14.01,2013-07-13 07:03:00,
2013-07-13 03:08:00,55.0,51.9,30.31,North,353,0.0,0.0,89,0.00,,SCT045,0.00,VWS V14.01,2013-07-13 07:08:00,
2013-07-13 03:13:00,55.0,51.9,30.31,North,353,0.0,0.0,89,0.00,,SCT045,0.00,VWS V14.01,2013-07-13 07:13:00,
2013-07-13 03:18:00,55.0,51.9,30.31,North,353,0.0,0.0,89,0.00,,SCT045,0.00,VWS V14.01,2013-07-13 07:18:00,
2013-07-13 03:23:00,55.0,51.9,30.31,North,353,0.0,0.0,89,0.00,,SCT045,0.00,VWS V14.01,2013-07-13 07:23:00,
2013-07-13 03:28:00,54.9,51.7,30.31,North,353,0.0,0.0,89,0.00,,SCT045,0.00,VWS V14.01,2013-07-13 07:28:00,
2013-07-13 03:33:00,54.9,52.0,30.31,North,353,0.0,0.0,90,0.00,,SCT045,0.00,VWS V14.01,2013-07-13 07:33:00,
2013-07-13 03:38:00,54.9,52.0,30.31,North,353,0.0,0.0,90,0.00,,SCT045,0.00,VWS V14.01,2013-07-13 07:38:00,
2013-07-13 03:43:00,54.7,51.8,30.31,North,353,0.0,0.0,90,0.00,,SCT050,0.00,VWS V14.01,2013-07-13 07:43:00,
2013-07-13 03:48:00,54.7,51.8,30.31,North,353,0.0,0.0,90,0.00,,SCT050,0.00,VWS V14.01,2013-07-13 07:48:00,
2013-07-13 03:53:00,54.5,51.6,30.31,North,353,0.0,0.0,90,0.00,,SCT050,0.00,VWS V14.01,2013-07-13 07:53:00,
2013-07-13 03:58:00,54.5,51.6,30.31,North,353,0.0,0.0,90,0.00,,SCT050,0.00,VWS V14.01,2013-07-13 07:58:00,
2013-07-13 04:03:00,54.5,51.6,30.31,North,353,0.0,0.0,90,0.00,,SCT050,0.00,VWS V14.01,2013-07-13 08:03:00,
2013-07-13 04:08:00,54.5,51.6,30.31,North,353,0.0,0.0,90,0.00,,SCT050,0.00,VWS V14.01,2013-07-13 08:08:00,
2013-07-13 04:13:00,54.5,51.6,30.31,North,353,0.0,0.0,90,0.00,,SCT050,0.00,VWS V14.01,2013-07-13 08:13:00,
2013-07-13 04:18:00,54.3,51.5,30.31,North,353,0.0,0.0,90,0.00,,SCT050,0.00,VWS V14.01,2013-07-13 08:18:00,
2013-07-13 04:23:00,54.3,51.8,30.31,North,353,0.0,0.0,91,0.00,,SCT050,0.00,VWS V14.01,2013-07-13 08:23:00,
2013-07-13 04:28:00,54.5,51.9,30.31,North,353,0.0,0.0,91,0.00,,SCT050,0.00,VWS V14.01,2013-07-13 08:28:00,
2013-07-13 04:33:00,54.5,51.9,30.31,North,353,0.0,0.0,91,0.00,,SCT050,0.00,VWS V14.01,2013-07-13 08:33:00,
2013-07-13 04:38:00,54.5,51.9,30.31,North,353,0.0,0.0,91,0.00,,SCT050,0.00,VWS V14.01,2013-07-13 08:38:00,
2013-07-13 04:43:00,54.5,51.9,30.31,North,353,0.0,0.0,91,0.00,,CLR,0.00,VWS V14.01,2013-07-13 08:43:00,
2013-07-13 04:48:00,54.5,51.9,30.31,North,353,0.0,0.0,91,0.00,,CLR,0.00,VWS V14.01,2013-07-13 08:48:00,
2013-07-13 04:53:00,54.7,52.1,30.31,North,353,0.0,0.0,91,0.00,,CLR,0.00,VWS V14.01,2013-07-13 08:53:00,
2013-07-13 04:58:00,54.7,52.1,30.31,North,353,0.0,0.0,91,0.00,,CLR,0.00,VWS V14.01,2013-07-13 08:58:00,
2013-07-13 05:03:00,54.7,52.1,30.31,North,353,0.0,0.0,91,0.00,,CLR,0.00,VWS V14.01,2013-07-13 09:03:00,
2013-07-13 05:08:00,54.5,51.9,30.31,North,353,0.0,0.0,91,0.00,,CLR,0.00,VWS V14.01,2013-07-13 09:08:00,
2013-07-13 05:13:00,54.5,51.9,30.31,North,353,0.0,0.0,91,0.00,,CLR,0.00,VWS V14.01,2013-07-13 09:13:00,
2013-07-13 05:19:00,54.5,52.2,30.31,North,353,0.0,0.0,92,0.00,,CLR,0.00,VWS V14.01,2013-07-13 09:19:00,
2013-07-13 05:24:00,54.5,52.2,30.31,North,353,0.0,0.0,92,0.00,,CLR,0.00,VWS V14.01,2013-07-13 09:24:00,
2013-07-13 05:29:00,54.5,52.2,30.31,North,353,0.0,0.0,92,0.00,,CLR,0.00,VWS V14.01,2013-07-13 09:29:00,
2013-07-13 05:34:00,54.5,52.2,30.31,North,353,0.0,0.0,92,0.00,,CLR,0.00,VWS V14.01,2013-07-13 09:34:00,
2013-07-13 05:39:00,54.3,52.0,30.31,North,353,0.0,0.0,92,0.00,,CLR,0.00,VWS V14.01,2013-07-13 09:39:00,
2013-07-13 05:44:00,54.3,52.0,30.31,North,353,0.0,0.0,92,0.00,,CLR,0.00,VWS V14.01,2013-07-13 09:44:00,
2013-07-13 05:49:00,54.3,52.0,30.31,North,353,0.0,0.0,92,0.00,,CLR,0.00,VWS V14.01,2013-07-13 09:49:00,
2013-07-13 05:54:00,54.3,52.0,30.31,North,353,0.0,0.0,92,0.00,,CLR,0.00,VWS V14.01,2013-07-13 09:54:00,
2013-07-13 05:59:00,54.3,52.0,30.31,North,353,0.0,0.0,92,0.00,,CLR,0.00,VWS V14.01,2013-07-13 09:59:00,
2013-07-13 06:04:00,54.3,52.0,30.31,North,353,0.0,0.0,92,0.00,,CLR,0.00,VWS V14.01,2013-07-13 10:04:00,
2013-07-13 06:09:00,54.3,52.0,30.31,North,353,0.0,0.0,92,0.00,,CLR,0.00,VWS V14.01,2013-07-13 10:09:00,
2013-07-13 06:14:00,54.3,52.0,30.31,North,353,0.0,0.0,92,0.00,,CLR,0.00,VWS V14.01,2013-07-13 10:14:00,
2013-07-13 06:19:00,54.3,52.0,30.31,North,353,0.0,0.0,92,0.00,,CLR,0.00,VWS V14.01,2013-07-13 10:19:00,
2013-07-13 06:24:00,55.2,53.2,30.31,North,353,0.0,0.0,93,0.00,,CLR,0.00,VWS V14.01,2013-07-13 10:24:00,
2013-07-13 06:29:00,55.4,53.4,30.34,North,353,0.0,0.0,93,0.00,,CLR,0.00,VWS V14.01,2013-07-13 10:29:00,
2013-07-13 06:34:00,55.4,53.4,30.34,North,353,0.0,0.0,93,0.00,,CLR,0.00,VWS V14.01,2013-07-13 10:34:00,
2013-07-13 06:39:00,55.9,54.0,30.34,North,353,0.0,0.0,93,0.00,,CLR,0.00,VWS V14.01,2013-07-13 10:39:00,
2013-07-13 06:44:00,55.9,54.0,30.34,North,353,0.0,0.0,93,0.00,,CLR,0.00,VWS V14.01,2013-07-13 10:44:00,
2013-07-13 06:49:00,55.9,54.0,30.34,North,353,0.0,0.0,93,0.00,,CLR,0.00,VWS V14.01,2013-07-13 10:49:00,
2013-07-13 06:54:00,55.9,54.0,30.34,North,353,0.0,0.0,93,0.00,,CLR,0.00,VWS V14.01,2013-07-13 10:54:00,
2013-07-13 06:59:00,57.2,55.2,30.34,North,353,0.0,0.0,93,0.00,,CLR,0.00,VWS V14.01,2013-07-13 10:59:00,
2013-07-13 07:04:00,57.4,55.4,30.34,North,353,0.0,0.0,93,0.00,,CLR,0.00,VWS V14.01,2013-07-13 11:04:00,
2013-07-13 07:09:00,57.4,55.4,30.34,North,353,0.0,0.0,93,0.00,,CLR,0.00,VWS V14.01,2013-07-13 11:09:00,
2013-07-13 07:14:00,58.1,56.1,30.34,North,353,0.0,0.0,93,0.00,,CLR,0.00,VWS V14.01,2013-07-13 11:14:00,
2013-07-13 07:19:00,58.1,56.1,30.34,North,353,0.0,0.0,93,0.00,,CLR,0.00,VWS V14.01,2013-07-13 11:19:00,
2013-07-13 07:24:00,58.1,56.1,30.34,North,353,0.0,0.0,93,0.00,,CLR,0.00,VWS V14.01,2013-07-13 11:24:00,
2013-07-13 07:29:00,58.1,56.1,30.34,North,353,0.0,0.0,93,0.00,,CLR,0.00,VWS V14.01,2013-07-13 11:29:00,
2013-07-13 07:34:00,58.1,56.1,30.34,North,353,0.0,0.0,93,0.00,,CLR,0.00,VWS V14.01,2013-07-13 11:34:00,
2013-07-13 07:39:00,60.6,58.9,30.31,North,353,0.0,0.0,94,0.00,,CLR,0.00,VWS V14.01,2013-07-13 11:39:00,
2013-07-13 07:44:00,60.6,58.9,30.31,North,353,0.0,0.0,94,0.00,,CLR,0.00,VWS V14.01,2013-07-13 11:44:00,
2013-07-13 07:49:00,60.6,58.9,30.31,North,353,0.0,0.0,94,0.00,,CLR,0.00,VWS V14.01,2013-07-13 11:49:00,
2013-07-13 07:54:00,60.6,58.9,30.31,North,353,0.0,0.0,94,0.00,,CLR,0.00,VWS V14.01,2013-07-13 11:54:00,
2013-07-13 07:59:00,60.6,58.9,30.34,North,353,0.0,0.0,94,0.00,,CLR,0.00,VWS V14.01,2013-07-13 11:59:00,
2013-07-13 08:04:00,64.2,62.2,30.34,North,353,0.0,0.0,93,0.00,,CLR,0.00,VWS V14.01,2013-07-13 12:04:00,
2013-07-13 08:09:00,64.2,62.2,30.34,North,353,0.0,0.0,93,0.00,,CLR,0.00,VWS V14.01,2013-07-13 12:09:00,
2013-07-13 08:14:00,64.2,62.2,30.34,NNW,342,4.5,4.5,93,0.00,,CLR,0.00,VWS V14.01,2013-07-13 12:14:00,
2013-07-13 08:15:00,64.2,62.2,30.34,NNW,342,4.5,4.5,93,0.00,,CLR,0.00,VWS V14.01,2013-07-13 12:15:00,
2013-07-13 08:20:00,64.2,62.2,30.34,NNW,342,0.0,0.0,93,0.00,,CLR,0.00,VWS V14.01,2013-07-13 12:20:00,
2013-07-13 08:25:00,66.9,64.5,30.34,NNW,337,0.0,0.0,92,0.00,,CLR,0.00,VWS V14.01,2013-07-13 12:25:00,
2013-07-13 08:30:00,66.9,64.5,30.34,North,353,0.0,0.0,92,0.00,,CLR,0.00,VWS V14.01,2013-07-13 12:30:00,
2013-07-13 08:35:00,66.9,64.5,30.34,NW,326,0.0,0.0,92,0.00,,CLR,0.00,VWS V14.01,2013-07-13 12:35:00,
2013-07-13 08:40:00,66.9,64.5,30.34,NNW,339,0.0,0.0,92,0.00,,CLR,0.00,VWS V14.01,2013-07-13 12:40:00,
2013-07-13 08:45:00,66.9,64.5,30.34,NNW,339,0.0,0.0,92,0.00,,CLR,0.00,VWS V14.01,2013-07-13 12:45:00,
2013-07-13 08:50:00,67.8,64.1,30.34,NNE,28,0.0,0.0,88,0.00,,CLR,0.00,VWS V14.01,2013-07-13 12:50:00,
2013-07-13 08:55:00,67.8,64.1,30.34,NNE,28,0.0,0.0,88,0.00,,CLR,0.00,VWS V14.01,2013-07-13 12:55:00,
2013-07-13 09:00:00,67.8,64.1,30.34,NNE,28,0.0,0.0,88,0.00,,CLR,0.00,VWS V14.01,2013-07-13 13:00:00,
2013-07-13 09:05:00,67.8,64.1,30.34,North,353,0.0,3.1,88,0.00,,CLR,0.00,VWS V14.01,2013-07-13 13:05:00,
2013-07-13 09:10:00,67.5,62.8,30.34,North,353,0.0,0.0,85,0.00,,CLR,0.00,VWS V14.01,2013-07-13 13:10:00,
2013-07-13 09:15:00,67.5,62.8,30.34,NNE,18,0.0,0.0,85,0.00,,CLR,0.00,VWS V14.01,2013-07-13 13:15:00,
2013-07-13 09:20:00,67.5,62.8,30.37,North,357,0.0,0.0,85,0.00,,CLR,0.00,VWS V14.01,2013-07-13 13:20:00,
2013-07-13 09:25:00,67.5,62.8,30.37,North,357,0.0,3.1,85,0.00,,CLR,0.00,VWS V14.01,2013-07-13 13:25:00,
2013-07-13 09:30:00,67.5,62.8,30.37,NNE,17,0.0,0.0,85,0.00,,CLR,0.00,VWS V14.01,2013-07-13 13:30:00,
2013-07-13 09:35:00,67.6,59.8,30.37,NNE,20,0.0,0.0,76,0.00,,CLR,0.00,VWS V14.01,2013-07-13 13:35:00,
2013-07-13 09:40:00,67.6,59.8,30.37,NNW,348,0.0,0.0,76,0.00,,CLR,0.00,VWS V14.01,2013-07-13 13:40:00,
2013-07-13 09:45:00,67.6,59.8,30.37,NNW,332,0.0,2.7,76,0.00,,CLR,0.00,VWS V14.01,2013-07-13 13:45:00,
2013-07-13 09:50:00,67.6,59.8,30.37,North,0,0.0,0.0,76,0.00,,CLR,0.00,VWS V14.01,2013-07-13 13:50:00,
2013-07-13 09:55:00,67.6,59.8,30.37,NNE,17,0.0,0.0,76,0.00,,CLR,0.00,VWS V14.01,2013-07-13 13:55:00,
2013-07-13 10:00:00,68.2,58.8,30.37,NNE,17,0.0,0.0,72,0.00,,CLR,0.00,VWS V14.01,2013-07-13 14:00:00,
2013-07-13 10:05:00,68.2,58.8,30.37,North,0,0.0,0.0,72,0.00,,CLR,0.00,VWS V14.01,2013-07-13 14:05:00,
2013-07-13 10:10:00,68.2,58.8,30.34,North,0,0.0,0.0,72,0.00,,CLR,0.00,VWS V14.01,2013-07-13 14:10:00,
2013-07-13 10:15:00,68.2,58.8,30.34,North,0,0.0,0.0,72,0.00,,CLR,0.00,VWS V14.01,2013-07-13 14:15:00,
2013-07-13 10:20:00,68.5,59.5,30.34,North,0,0.0,0.0,73,0.00,,CLR,0.00,VWS V14.01,2013-07-13 14:20:00,
2013-07-13 10:25:00,68.7,59.7,30.34,North,349,0.0,0.0,73,0.00,,CLR,0.00,VWS V14.01,2013-07-13 14:25:00,
2013-07-13 10:30:00,68.7,59.7,30.34,NNW,336,0.0,0.0,73,0.00,,CLR,0.00,VWS V14.01,2013-07-13 14:30:00,
2013-07-13 10:35:00,68.7,59.7,30.34,North,2,2.7,2.7,73,0.00,,CLR,0.00,VWS V14.01,2013-07-13 14:35:00,
2013-07-13 10:40:00,68.7,59.7,30.34,NNE,19,0.0,0.0,73,0.00,,CLR,0.00,VWS V14.01,2013-07-13 14:40:00,
2013-07-13 10:45:00,68.7,59.7,30.34,NNW,346,0.0,0.0,73,0.00,,SCT075,0.00,VWS V14.01,2013-07-13 14:45:00,
2013-07-13 10:50:00,68.7,59.7,30.34,NNW,346,0.0,0.0,73,0.00,,SCT075,0.00,VWS V14.01,2013-07-13 14:50:00,
2013-07-13 10:55:00,70.0,57.3,30.34,NNW,346,0.0,0.0,64,0.00,,SCT075,0.00,VWS V14.01,2013-07-13 14:55:00,
2013-07-13 11:00:00,70.0,57.3,30.34,NNE,23,0.0,0.0,64,0.00,,SCT075,0.00,VWS V14.01,2013-07-13 15:00:00,
2013-07-13 11:05:00,70.0,57.3,30.34,NNE,23,0.0,0.0,64,0.00,,SCT075,0.00,VWS V14.01,2013-07-13 15:05:00,
2013-07-13 11:10:00,70.0,56.8,30.34,NNE,17,0.0,0.0,63,0.00,,SCT075,0.00,VWS V14.01,2013-07-13 15:10:00,
2013-07-13 11:15:00,70.0,57.3,30.37,North,357,0.0,0.0,64,0.00,,SCT075,0.00,VWS V14.01,2013-07-13 15:15:00,
2013-07-13 11:20:00,70.0,57.3,30.37,WNW,282,0.0,0.0,64,0.00,,SCT075,0.00,VWS V14.01,2013-07-13 15:20:00,
2013-07-13 11:25:00,70.0,57.7,30.37,SW,217,0.0,0.0,65,0.00,,SCT075,0.00,VWS V14.01,2013-07-13 15:25:00,
2013-07-13 11:30:00,69.6,57.3,30.37,SW,217,0.0,0.0,65,0.00,,SCT075,0.00,VWS V14.01,2013-07-13 15:30:00,
2013-07-13 11:35:00,69.6,57.3,30.37,SW,217,0.0,0.0,65,0.00,,SCT075,0.00,VWS V14.01,2013-07-13 15:35:00,
2013-07-13 11:40:00,69.6,57.3,30.37,NE,56,0.0,0.0,65,0.00,,OVC070,0.00,VWS V14.01,2013-07-13 15:40:00,
2013-07-13 11:45:00,69.3,57.0,30.37,NE,56,0.0,0.0,65,0.00,,OVC070,0.00,VWS V14.01,2013-07-13 15:45:00,
2013-07-13 11:50:00,69.3,57.0,30.37,East,80,0.0,0.0,65,0.00,,OVC070,0.00,VWS V14.01,2013-07-13 15:50:00,
2013-07-13 11:55:00,69.4,56.3,30.37,NNE,19,0.0,0.0,63,0.00,,OVC070,0.00,VWS V14.01,2013-07-13 15:55:00,
2013-07-13 12:00:00,69.4,56.3,30.37,NNW,330,0.0,0.0,63,0.00,,OVC070,0.00,VWS V14.01,2013-07-13 16:00:00,
2013-07-13 12:05:00,69.4,56.3,30.37,North,353,2.2,2.2,63,0.00,,OVC070,0.00,VWS V14.01,2013-07-13 16:05:00,
2013-07-13 12:10:00,69.4,56.3,30.37,North,9,3.1,3.1,63,0.00,,OVC070,0.00,VWS V14.01,2013-07-13 16:10:00,
2013-07-13 12:15:00,69.4,56.3,30.37,NNE,26,3.6,3.6,63,0.00,,OVC070,0.00,VWS V14.01,2013-07-13 16:15:00,
2013-07-13 12:21:00,68.7,57.3,30.37,North,353,0.0,0.0,67,0.00,,OVC070,0.00,VWS V14.01,2013-07-13 16:21:00,
2013-07-13 12:26:00,68.7,57.3,30.37,NNE,21,2.7,3.6,67,0.00,,OVC070,0.00,VWS V14.01,2013-07-13 16:26:00,
2013-07-13 12:31:00,68.7,57.3,30.37,North,353,4.0,4.0,67,0.00,,OVC070,0.00,VWS V14.01,2013-07-13 16:31:00,
2013-07-13 12:36:00,68.7,57.3,30.37,North,6,3.6,4.0,67,0.00,,OVC070,0.00,VWS V14.01,2013-07-13 16:36:00,
2013-07-13 12:41:00,71.2,61.0,30.37,NNW,335,2.7,2.7,70,0.00,,OVC060,0.00,VWS V14.01,2013-07-13 16:41:00,
2013-07-13 12:46:00,71.2,61.0,30.37,NNE,33,4.9,4.9,70,0.00,,OVC060,0.00,VWS V14.01,2013-07-13 16:46:00,
2013-07-13 12:51:00,71.4,59.9,30.37,East,83,4.9,4.9,67,0.00,,OVC060,0.00,VWS V14.01,2013-07-13 16:51:00,
2013-07-13 12:56:00,72.0,60.4,30.37,North,6,2.7,4.9,67,0.00,,OVC060,0.00,VWS V14.01,2013-07-13 16:56:00,
2013-07-13 13:01:00,72.0,60.4,30.37,NW,325,0.0,3.6,67,0.00,,OVC060,0.00,VWS V14.01,2013-07-13 17:01:00,
2013-07-13 13:06:00,73.8,60.8,30.34,NW,310,0.0,3.6,64,0.00,,OVC060,0.00,VWS V14.01,2013-07-13 17:06:00,
2013-07-13 13:11:00,73.8,60.8,30.34,NNE,23,5.8,5.8,64,0.00,,OVC060,0.00,VWS V14.01,2013-07-13 17:11:00,
2013-07-13 13:16:00,73.4,58.2,30.34,SSE,165,0.0,5.8,59,0.00,,OVC060,0.00,VWS V14.01,2013-07-13 17:16:00,
2013-07-13 13:21:00,73.9,59.2,30.34,South,179,3.6,3.6,60,0.00,,OVC060,0.00,VWS V14.01,2013-07-13 17:21:00,
2013-07-13 13:26:00,73.9,59.2,30.34,South,172,2.7,4.0,60,0.00,,OVC060,0.00,VWS V14.01,2013-07-13 17:26:00,
2013-07-13 13:31:00,74.5,59.2,30.34,South,172,2.7,2.7,59,0.00,,OVC060,0.00,VWS V14.01,2013-07-13 17:31:00,
2013-07-13 13:36:00,74.5,59.2,30.34,South,172,0.0,2.7,59,0.00,,OVC060,0.00,VWS V14.01,2013-07-13 17:36:00,
2013-07-13 13:41:00,74.5,58.8,30.34,South,172,0.0,0.0,58,0.00,,OVC050,0.00,VWS V14.01,2013-07-13 17:41:00,
2013-07-13 13:46:00,74.5,58.8,30.34,ESE,119,0.0,0.0,58,0.00,,OVC050,0.00,VWS V14.01,2013-07-13 17:46:00,
2013-07-13 13:51:00,74.5,58.3,30.34,SE,138,0.0,0.0,57,0.00,,OVC050,0.00,VWS V14.01,2013-07-13 17:51:00,
2013-07-13 13:56:00,74.5,58.3,30.34,NNE,18,0.0,0.0,57,0.00,,OVC050,0.00,VWS V14.01,2013-07-13 17:56:00,
2013-07-13 14:01:00,74.5,58.3,30.34,NNE,12,3.6,3.6,57,0.00,,OVC050,0.00,VWS V14.01,2013-07-13 18:01:00,
2013-07-13 14:06:00,74.5,58.3,30.34,North,357,0.0,3.6,57,0.00,,OVC050,0.00,VWS V14.01,2013-07-13 18:06:00,
2013-07-13 14:11:00,74.5,58.3,30.34,North,6,0.0,0.0,57,0.00,,OVC050,0.00,VWS V14.01,2013-07-13 18:11:00,
2013-07-13 14:16:00,73.9,57.3,30.34,ESE,120,0.0,0.0,56,0.00,,OVC050,0.00,VWS V14.01,2013-07-13 18:16:00,
2013-07-13 14:21:00,74.1,58.4,30.34,South,170,0.0,0.0,58,0.00,,OVC050,0.00,VWS V14.01,2013-07-13 18:21:00,
2013-07-13 14:26:00,74.7,58.4,30.34,South,170,2.7,2.7,57,0.00,,OVC050,0.00,VWS V14.01,2013-07-13 18:26:00,
2013-07-13 14:31:00,74.7,58.4,30.34,South,175,3.6,5.8,57,0.00,,OVC050,0.00,VWS V14.01,2013-07-13 18:31:00,
2013-07-13 14:36:00,74.7,58.4,30.34,South,175,0.0,5.8,57,0.00,,OVC050,0.00,VWS V14.01,2013-07-13 18:36:00,
2013-07-13 14:41:00,75.9,58.6,30.34,South,173,0.0,0.0,55,0.00,,OVC046,0.00,VWS V14.01,2013-07-13 18:41:00,
2013-07-13 14:46:00,75.9,58.6,30.34,South,169,0.0,5.4,55,0.00,,OVC046,0.00,VWS V14.01,2013-07-13 18:46:00,
2013-07-13 14:51:00,75.7,58.4,30.34,SSW,196,0.0,0.0,55,0.00,,OVC046,0.00,VWS V14.01,2013-07-13 18:51:00,
2013-07-13 14:56:00,75.7,58.4,30.34,NNE,28,3.1,3.1,55,0.00,,OVC046,0.00,VWS V14.01,2013-07-13 18:56:00,
2013-07-13 15:01:00,77.4,61.0,30.34,SSE,160,3.6,3.6,57,0.00,,OVC046,0.00,VWS V14.01,2013-07-13 19:01:00,
2013-07-13 15:06:00,78.3,61.8,30.34,SSE,165,0.0,3.6,57,0.00,,OVC046,0.00,VWS V14.01,2013-07-13 19:06:00,
2013-07-13 15:11:00,78.3,61.8,30.34,SSE,163,4.9,4.9,57,0.00,,OVC046,0.00,VWS V14.01,2013-07-13 19:11:00,
2013-07-13 15:16:00,79.7,59.4,30.34,SSE,160,0.0,4.9,50,0.00,,OVC046,0.00,VWS V14.01,2013-07-13 19:16:00,
2013-07-13 15:21:00,79.7,59.4,30.34,South,175,5.8,5.8,50,0.00,,OVC046,0.00,VWS V14.01,2013-07-13 19:21:00,
2013-07-13 15:26:00,80.1,57.4,30.34,South,181,5.4,5.8,46,0.00,,OVC046,0.00,VWS V14.01,2013-07-13 19:26:00,
2013-07-13 15:31:00,80.1,57.4,30.34,SSE,163,4.0,4.0,46,0.00,,OVC046,0.00,VWS V14.01,2013-07-13 19:31:00,
2013-07-13 15:36:00,80.1,57.4,30.34,South,170,4.0,4.0,46,0.00,,OVC046,0.00,VWS V14.01,2013-07-13 19:36:00,
2013-07-13 15:41:00,76.6,54.9,30.34,SSE,168,3.1,3.1,47,0.00,,FEW039,0.00,VWS V14.01,2013-07-13 19:41:00,
2013-07-13 15:46:00,75.9,54.8,30.34,South,175,0.0,3.6,48,0.00,,FEW039,0.00,VWS V14.01,2013-07-13 19:46:00,
2013-07-13 15:51:00,75.6,55.6,30.34,SSE,158,0.0,0.0,50,0.00,,FEW039,0.00,VWS V14.01,2013-07-13 19:51:00,
2013-07-13 15:56:00,75.6,55.6,30.34,SSE,158,0.0,0.0,50,0.00,,FEW039,0.00,VWS V14.01,2013-07-13 19:56:00,
2013-07-13 16:01:00,75.0,57.8,30.34,SSE,159,0.0,0.0,55,0.00,,FEW039,0.00,VWS V14.01,2013-07-13 20:01:00,
2013-07-13 16:06:00,75.0,58.3,30.34,North,357,0.0,0.0,56,0.00,,FEW039,0.00,VWS V14.01,2013-07-13 20:06:00,
2013-07-13 16:11:00,74.8,59.1,30.34,East,99,0.0,0.0,58,0.00,,FEW039,0.00,VWS V14.01,2013-07-13 20:11:00,
2013-07-13 16:16:00,75.0,59.3,30.34,NNE,31,2.2,4.0,58,0.00,,FEW039,0.00,VWS V14.01,2013-07-13 20:16:00,
2013-07-13 16:21:00,74.8,59.1,30.34,North,2,0.0,0.0,58,0.00,,FEW039,0.00,VWS V14.01,2013-07-13 20:21:00,
2013-07-13 16:26:00,74.7,58.9,30.34,NNW,332,0.0,2.2,58,0.00,,FEW039,0.00,VWS V14.01,2013-07-13 20:26:00,
2013-07-13 16:31:00,74.5,58.3,30.34,NNE,32,0.0,0.0,57,0.00,,FEW039,0.00,VWS V14.01,2013-07-13 20:31:00,
2013-07-13 16:36:00,74.5,58.8,30.34,NNE,32,0.0,0.0,58,0.00,,FEW039,0.00,VWS V14.01,2013-07-13 20:36:00,
2013-07-13 16:41:00,74.8,60.0,30.34,NNE,27,0.0,0.0,60,0.00,,SCT039,0.00,VWS V14.01,2013-07-13 20:41:00,
2013-07-13 16:46:00,75.4,60.5,30.34,ENE,76,0.0,0.0,60,0.00,,SCT039,0.00,VWS V14.01,2013-07-13 20:46:00,
2013-07-13 16:51:00,75.4,60.1,30.34,North,353,0.0,0.0,59,0.00,,SCT039,0.00,VWS V14.01,2013-07-13 20:51:00,
2013-07-13 16:56:00,75.4,59.1,30.34,North,353,0.0,2.7,57,0.00,,SCT039,0.00,VWS V14.01,2013-07-13 20:56:00,
2013-07-13 17:01:00,75.6,59.3,30.34,North,353,0.0,4.0,57,0.00,,SCT039,0.00,VWS V14.01,2013-07-13 21:01:00,
2013-07-13 17:06:00,75.6,59.8,30.34,South,173,0.0,4.0,58,0.00,,SCT039,0.00,VWS V14.01,2013-07-13 21:06:00,
2013-07-13 17:11:00,75.6,59.8,30.34,South,170,0.0,0.0,58,0.00,,SCT039,0.00,VWS V14.01,2013-07-13 21:11:00,
2013-07-13 17:16:00,75.6,59.8,30.34,South,173,0.0,0.0,58,0.00,,SCT039,0.00,VWS V14.01,2013-07-13 21:16:00,
2013-07-13 17:21:00,75.7,59.9,30.34,ESE,112,0.0,0.0,58,0.00,,SCT039,0.00,VWS V14.01,2013-07-13 21:21:00,
2013-07-13 17:26:00,75.7,59.9,30.34,SSE,163,3.6,3.6,58,0.00,,SCT039,0.00,VWS V14.01,2013-07-13 21:26:00,
2013-07-13 17:31:00,75.7,60.4,30.34,SSE,165,0.0,0.0,59,0.00,,SCT039,0.00,VWS V14.01,2013-07-13 21:31:00,
2013-07-13 17:36:00,75.7,60.9,30.34,SSE,159,0.0,0.0,60,0.00,,SCT039,0.00,VWS V14.01,2013-07-13 21:36:00,
2013-07-13 17:41:00,75.9,61.0,30.34,SSE,159,0.0,0.0,60,0.00,,BKN047,0.00,VWS V14.01,2013-07-13 21:41:00,
2013-07-13 17:46:00,76.1,60.8,30.34,SSE,167,0.0,0.0,59,0.00,,BKN047,0.00,VWS V14.01,2013-07-13 21:46:00,
2013-07-13 17:51:00,76.1,60.8,30.34,SSE,160,0.0,0.0,59,0.00,,BKN047,0.00,VWS V14.01,2013-07-13 21:51:00,
2013-07-13 17:56:00,76.1,60.8,30.34,SSE,160,0.0,0.0,59,0.00,,BKN047,0.00,VWS V14.01,2013-07-13 21:56:00,
2013-07-13 18:01:00,76.3,60.9,30.31,SSE,164,0.0,0.0,59,0.00,,BKN047,0.00,VWS V14.01,2013-07-13 22:01:00,
2013-07-13 18:06:00,76.5,61.1,30.31,South,178,3.6,4.9,59,0.00,,BKN047,0.00,VWS V14.01,2013-07-13 22:06:00,
2013-07-13 18:11:00,76.5,61.6,30.31,South,187,4.0,4.0,60,0.00,,BKN047,0.00,VWS V14.01,2013-07-13 22:11:00,
2013-07-13 18:16:00,76.6,61.2,30.31,South,180,2.2,4.0,59,0.00,,BKN047,0.00,VWS V14.01,2013-07-13 22:16:00,
2013-07-13 18:21:00,77.0,60.1,30.31,South,179,0.0,0.0,56,0.00,,BKN047,0.00,VWS V14.01,2013-07-13 22:21:00,
2013-07-13 18:26:00,76.8,60.0,30.31,SSE,167,2.7,3.1,56,0.00,,BKN047,0.00,VWS V14.01,2013-07-13 22:26:00,
2013-07-13 18:31:00,76.3,61.4,30.31,SSE,156,3.1,3.1,60,0.00,,BKN047,0.00,VWS V14.01,2013-07-13 22:31:00,
2013-07-13 18:36:00,76.3,61.4,30.31,South,180,3.6,4.9,60,0.00,,BKN047,0.00,VWS V14.01,2013-07-13 22:36:00,
2013-07-13 18:41:00,75.9,61.0,30.31,SSE,165,3.1,3.1,60,0.00,,BKN060,0.00,VWS V14.01,2013-07-13 22:41:00,
2013-07-13 18:46:00,75.9,61.0,30.31,South,174,0.0,4.0,60,0.00,,BKN060,0.00,VWS V14.01,2013-07-13 22:46:00,
2013-07-13 18:51:00,75.9,61.5,30.31,SSE,158,0.0,0.0,61,0.00,,BKN060,0.00,VWS V14.01,2013-07-13 22:51:00,
2013-07-13 18:56:00,75.7,60.9,30.31,SSE,158,0.0,0.0,60,0.00,,BKN060,0.00,VWS V14.01,2013-07-13 22:56:00,
2013-07-13 19:01:00,75.7,60.9,30.31,SSE,158,0.0,0.0,60,0.00,,BKN060,0.00,VWS V14.01,2013-07-13 23:01:00,
2013-07-13 19:06:00,75.7,60.4,30.31,SSE,160,0.0,0.0,59,0.00,,BKN060,0.00,VWS V14.01,2013-07-13 23:06:00,
2013-07-13 19:11:00,75.7,60.4,30.31,South,178,3.1,3.1,59,0.00,,BKN060,0.00,VWS V14.01,2013-07-13 23:11:00,
2013-07-13 19:16:00,75.7,60.4,30.31,South,174,0.0,3.1,59,0.00,,BKN060,0.00,VWS V14.01,2013-07-13 23:16:00,
2013-07-13 19:21:00,75.4,60.5,30.31,South,175,0.0,0.0,60,0.00,,BKN060,0.00,VWS V14.01,2013-07-13 23:21:00,
2013-07-13 19:26:00,75.4,60.5,30.31,South,175,2.7,2.7,60,0.00,,BKN060,0.00,VWS V14.01,2013-07-13 23:26:00,
2013-07-13 19:31:00,75.4,60.5,30.34,South,175,2.7,2.7,60,0.00,,BKN060,0.00,VWS V14.01,2013-07-13 23:31:00,
2013-07-13 19:36:00,75.0,60.7,30.34,South,175,0.0,2.7,61,0.00,,BKN060,0.00,VWS V14.01,2013-07-13 23:36:00,
2013-07-13 19:41:00,74.7,60.3,30.34,South,178,0.0,0.0,61,0.00,,FEW060,0.00,VWS V14.01,2013-07-13 23:41:00,
2013-07-13 19:47:00,74.7,60.3,30.34,South,178,0.0,0.0,61,0.00,,FEW060,0.00,VWS V14.01,2013-07-13 23:47:00,
2013-07-13 19:52:00,74.7,60.3,30.34,South,178,0.0,0.0,61,0.00,,FEW060,0.00,VWS V14.01,2013-07-13 23:52:00,
2013-07-13 19:57:00,73.2,59.9,30.34,South,178,0.0,0.0,63,0.00,,FEW060,0.00,VWS V14.01,2013-07-13 23:57:00,
2013-07-13 20:02:00,72.5,59.6,30.34,South,178,0.0,0.0,64,0.00,,FEW060,0.00,VWS V14.01,2013-07-14 00:02:00,
2013-07-13 20:07:00,72.0,60.0,30.34,South,178,0.0,0.0,66,0.00,,FEW060,0.00,VWS V14.01,2013-07-14 00:07:00,
2013-07-13 20:12:00,72.0,60.0,30.34,South,178,0.0,0.0,66,0.00,,OVC060,0.00,VWS V14.01,2013-07-14 00:12:00,
2013-07-13 20:17:00,71.4,60.3,30.34,South,178,0.0,0.0,68,0.00,,OVC060,0.00,VWS V14.01,2013-07-14 00:17:00,
2013-07-13 20:22:00,71.1,60.8,30.34,South,178,0.0,0.0,70,0.00,,OVC060,0.00,VWS V14.01,2013-07-14 00:22:00,
2013-07-13 20:26:00,70.9,60.6,30.34,South,178,0.0,0.0,70,0.00,,OVC060,0.00,VWS V14.01,2013-07-14 00:26:00,
2013-07-13 20:31:00,70.5,60.7,30.34,South,178,0.0,0.0,71,0.00,,OVC060,0.00,VWS V14.01,2013-07-14 00:31:00,
2013-07-13 20:36:00,70.5,60.7,30.34,South,178,0.0,0.0,71,0.00,,OVC060,0.00,VWS V14.01,2013-07-14 00:36:00,
2013-07-13 20:41:00,70.2,60.7,30.34,South,178,0.0,0.0,72,0.00,,OVC060,0.00,VWS V14.01,2013-07-14 00:41:00,
2013-07-13 20:46:00,70.2,60.7,30.34,South,178,0.0,0.0,72,0.00,,OVC060,0.00,VWS V14.01,2013-07-14 00:46:00,
2013-07-13 20:51:00,69.6,60.6,30.34,South,178,0.0,0.0,73,0.00,,OVC060,0.00,VWS V14.01,2013-07-14 00:51:00,
2013-07-13 20:56:00,69.4,60.8,30.34,South,178,0.0,0.0,74,0.00,,OVC060,0.00,VWS V14.01,2013-07-14 00:56:00,
2013-07-13 21:01:00,69.1,60.8,30.34,South,178,0.0,0.0,75,0.00,,OVC060,0.00,VWS V14.01,2013-07-14 01:01:00,
2013-07-13 21:06:00,68.9,60.7,30.34,South,178,0.0,0.0,75,0.00,,OVC060,0.00,VWS V14.01,2013-07-14 01:06:00,
2013-07-13 21:11:00,68.9,60.7,30.34,South,178,0.0,0.0,75,0.00,,OVC060,0.00,VWS V14.01,2013-07-14 01:11:00,
2013-07-13 21:17:00,68.2,60.7,30.34,South,178,0.0,0.0,77,0.00,,OVC060,0.00,VWS V14.01,2013-07-14 01:17:00,
2013-07-13 21:22:00,68.2,60.7,30.34,South,178,0.0,0.0,77,0.00,,OVC060,0.00,VWS V14.01,2013-07-14 01:22:00,
2013-07-13 21:27:00,68.2,60.7,30.34,South,178,0.0,0.0,77,0.00,,OVC060,0.00,VWS V14.01,2013-07-14 01:27:00,
2013-07-13 21:32:00,68.2,60.7,30.34,South,178,0.0,0.0,77,0.00,,OVC060,0.00,VWS V14.01,2013-07-14 01:32:00,
2013-07-13 21:37:00,67.5,60.7,30.34,South,178,0.0,0.0,79,0.00,,OVC060,0.00,VWS V14.01,2013-07-14 01:37:00,
2013-07-13 21:42:00,67.1,60.7,30.34,South,178,0.0,0.0,80,0.00,,BKN065,0.00,VWS V14.01,2013-07-14 01:42:00,
2013-07-13 21:47:00,67.1,60.7,30.34,South,178,0.0,0.0,80,0.00,,BKN065,0.00,VWS V14.01,2013-07-14 01:47:00,
2013-07-13 21:52:00,66.7,60.7,30.34,South,178,0.0,0.0,81,0.00,,BKN065,0.00,VWS V14.01,2013-07-14 01:52:00,
2013-07-13 21:57:00,66.7,60.7,30.34,South,178,0.0,0.0,81,0.00,,BKN065,0.00,VWS V14.01,2013-07-14 01:57:00,
2013-07-13 22:02:00,66.2,60.5,30.37,South,178,0.0,0.0,82,0.00,,BKN065,0.00,VWS V14.01,2013-07-14 02:02:00,
2013-07-13 22:07:00,66.2,60.5,30.37,South,178,0.0,0.0,82,0.00,,BKN065,0.00,VWS V14.01,2013-07-14 02:07:00,
2013-07-13 22:12:00,66.2,60.5,30.37,South,178,0.0,0.0,82,0.00,,BKN065,0.00,VWS V14.01,2013-07-14 02:12:00,
2013-07-13 22:17:00,66.2,60.5,30.37,South,178,0.0,0.0,82,0.00,,BKN065,0.00,VWS V14.01,2013-07-14 02:17:00,
2013-07-13 22:22:00,66.2,60.5,30.37,South,178,0.0,0.0,82,0.00,,BKN065,0.00,VWS V14.01,2013-07-14 02:22:00,
2013-07-13 22:27:00,65.5,60.2,30.37,South,178,0.0,0.0,83,0.00,,BKN065,0.00,VWS V14.01,2013-07-14 02:27:00,
2013-07-13 22:32:00,65.5,60.2,30.37,South,178,0.0,0.0,83,0.00,,BKN065,0.00,VWS V14.01,2013-07-14 02:32:00,
2013-07-13 22:37:00,65.5,60.2,30.37,South,178,0.0,0.0,83,0.00,,BKN065,0.00,VWS V14.01,2013-07-14 02:37:00,
2013-07-13 22:42:00,64.9,60.0,30.37,South,178,0.0,0.0,84,0.00,,FEW065,0.00,VWS V14.01,2013-07-14 02:42:00,
2013-07-13 22:47:00,64.9,60.0,30.37,South,178,0.0,0.0,84,0.00,,FEW065,0.00,VWS V14.01,2013-07-14 02:47:00,
2013-07-13 22:52:00,64.8,60.2,30.37,South,178,0.0,0.0,85,0.00,,FEW065,0.00,VWS V14.01,2013-07-14 02:52:00,
2013-07-13 22:57:00,64.8,60.2,30.37,South,178,0.0,0.0,85,0.00,,FEW065,0.00,VWS V14.01,2013-07-14 02:57:00,
2013-07-13 23:02:00,64.4,60.1,30.37,South,178,0.0,0.0,86,0.00,,FEW065,0.00,VWS V14.01,2013-07-14 03:02:00,
2013-07-13 23:07:00,64.4,60.1,30.37,South,178,0.0,0.0,86,0.00,,FEW065,0.00,VWS V14.01,2013-07-14 03:07:00,
2013-07-13 23:12:00,64.2,60.3,30.37,South,178,0.0,0.0,87,0.00,,FEW065,0.00,VWS V14.01,2013-07-14 03:12:00,
2013-07-13 23:17:00,64.2,60.3,30.37,South,178,0.0,0.0,87,0.00,,FEW065,0.00,VWS V14.01,2013-07-14 03:17:00,
2013-07-13 23:22:00,64.2,60.3,30.37,South,178,0.0,0.0,87,0.00,,FEW065,0.00,VWS V14.01,2013-07-14 03:22:00,
2013-07-13 23:27:00,64.2,60.3,30.37,South,178,0.0,0.0,87,0.00,,FEW065,0.00,VWS V14.01,2013-07-14 03:27:00,
2013-07-13 23:32:00,64.2,60.3,30.37,South,178,0.0,0.0,87,0.00,,FEW065,0.00,VWS V14.01,2013-07-14 03:32:00,
2013-07-13 23:37:00,63.5,59.9,30.37,South,178,0.0,0.0,88,0.00,,FEW065,0.00,VWS V14.01,2013-07-14 03:37:00,
2013-07-13 23:42:00,63.5,59.9,30.37,South,178,0.0,0.0,88,0.00,,CLR,0.00,VWS V14.01,2013-07-14 03:42:00,
2013-07-13 23:47:00,63.5,59.9,30.37,South,178,0.0,0.0,88,0.00,,CLR,0.00,VWS V14.01,2013-07-14 03:47:00,
2013-07-13 23:52:00,63.5,59.9,30.37,South,178,0.0,0.0,88,0.00,,CLR,0.00,VWS V14.01,2013-07-14 03:52:00,
2013-07-13 23:57:00,63.5,59.9,30.37,South,178,0.0,0.0,88,0.00,,CLR,0.00,VWS V14.01,2013-07-14 03:57:00,